Regional Weather Roundup
Issued by NWS Charleston, SC

Current Version | Previous Version | Graphics & Text | Print | Product List | Glossary On
Versions: 1 2 3 4 5 6 7 8 9 10 11 12 13 14 15 16 17 18 19 20 21 22 23 24 25 26 27 28 29 30 31 32 33 34 35 36 37 38 39 40 41 42 43 44 45 46 47 48 49 50
000
ASUS42 KCHS 211925
RWRCHS

REGIONAL WEATHER ROUNDUP
NATIONAL WEATHER SERVICE CHARLESTON SC
300 PM EDT SUN SEP 21 2014

NOTE: "FAIR" INDICATES FEW OR NO CLOUDS BELOW 12,000 FEET WITH NO
SIGNIFICANT WEATHER AND/OR OBSTRUCTIONS TO VISIBILITY.

NOT ALL STATIONS ARE QUALITY CONTROLLED BY THE NATIONAL
WEATHER SERVICE. USE DATA WITH CAUTION...ESPECIALLY
DEWPOINT OBSERVATIONS.

SCZ027-030-031-034>040-042>050-212000-
...SOUTH CAROLINA...

CITY           SKY/WX    TMP DP  RH WIND       PRES   REMARKS
N CHARLESTON   MOSUNNY   87  62  43 W9        29.90F
WATERFRONT PRK   N/A     84 N/A N/A W7G16       N/A
FORT JOHNSON   NOT AVBL
MOUNT PLEASANT FAIR      88  64  45 NW7       29.89F
JOHNS ISLAND   CLEAR     88  72  58 W10       29.90F HX  94
PINOPOLIS        N/A     84  66  54 N5G12     29.82F
MONCKS CORNER    N/A     86  68  54 W6        29.89F
SUMMERVILLE    FAIR      86  64  48 W5        29.90F
BEAUFORT MCAS  SUNNY     88  63  43 S10       29.91F
BEAUFORT ARPT  FAIR      88  64  45 W12       29.91F
HILTON HEAD IS SUNNY     86  64  48 W6        29.94F
GEORGETOWN     NOT AVBL
WALTERBORO     CLEAR     88  54  31 NW9       29.91F
ORANGEBURG     SUNNY     86  61  42 SW5       29.90F
BARNWELL       FAIR      90  61  37 W8        29.91F
AIKEN          FAIR      86  68  54 SW15      29.95F
MANNING        FAIR      88  64  45 W6        29.88F
KINGSTREE      NOT AVBL
COLUMBIA       MOSUNNY   89  60  37 W14       29.88F
SUMTER         SUNNY     87  65  47 W13       29.87F
FLORENCE       SUNNY     86  62  44 SW10      29.86F
MYRTLE BEACH   SUNNY     84  61  45 W12       29.86F
N MYRTLE BEACH SUNNY     84  61  45 W9        29.85F

$$

GAZ063-065-086>088-099>101-113>116-118-119-134-136>141-150-212000-
...GEORGIA...

CITY           SKY/WX    TMP DP  RH WIND       PRES   REMARKS
SAVANNAH ARPT  MOSUNNY   88  62  41 W13       29.93F
HUNTER AAF     SUNNY     87  64  45 NW8       29.92F
FORT STEWART   SUNNY     88  60  38 W6        29.93F
STATESBORO     NOT AVBL
SYLVANIA       CLEAR     87  66  48 W7        29.93F
CLAXTON        FAIR      88  68  51 W5        29.94F HX  91
THOMSON        MOSUNNY   87  69  55 W6        29.97F HX  91
AUGUSTA-BUSH   SUNNY     89  60  37 NW12      29.91F
AUGUSTA-DANIEL SUNNY     87  61  41 W9G20     29.93F
SWAINSBORO     FAIR      90  64  43 W9        29.95F HX  91
VIDALIA        MOSUNNY   86  63  45 W6        29.96F
ALMA           SUNNY     88  59  37 NW9       29.97F
WAYCROSS       NOT AVBL
JESUP          FAIR      91  61  35 NW5       29.95F HX  91
BRUNSWICK      SUNNY     88  59  37 NW3       29.96F
SAINT SIMONS   SUNNY     87  58  37 N7        29.96F

$$

SCZ027-028-034-036>038-045-046-048>050-GAZ119-141-212000-
...LAKE AND SUPPLEMENTAL COASTAL OBSERVATIONS...

STATION/POSITION TIME  TEMP    WIND        PRES    WAVE   SWELL
                       AIR SEA DIR/SP/G            HT/PER HT/PER/DIR
                 (UTC) (F)     (DEG/KT/KT) (MB)    (FT/S) (FT/S/D)
UPR LAKE MARION  NOT AVBL
WINYAH BAY       1900   82     290/  9     1012.0S
LAKE MURRAY      1900   83     250/ 11/ 14 1011.5F
ACE BASIN NERRS  1900   85     280/  4     1013.0F
FORT PULASKI     1900   84     290/  6/  7 1013.7F
SAPELO ISLAND    1900   87     310/  6     1015.0S

$$

ANZ835-935-AMZ111-154-330-350-352-354-374-450-454-472-212000-
...C-MAN AND BUOY OBSERVATIONS...

STATION/POSITION TIME  TEMP    WIND        PRES    WAVE   SWELL
                       AIR SEA DIR/SP/G            HT/PER HT/PER/DIR
                 (UTC) (F)     (DEG/KT/KT) (MB)    (FT/S) (FT/S/D)
FOLLY BEACH CMAN 1900   85     280/  5/  9 1013.0F
BUOY 41004       1900   78 81  280/ 10/ 12 1012.8F   4/ 6   3/ 6
BUOY 41008       1900   80 83  310/  6/  8 1014.5F   3/ 8   3/ 90/ 8
5E ST. MARYS GA  1900      84                N/A     3/ 8
FRYING PAN BUOY  NOT AVBL
BUOY 41025       1900   77     310/ 17/ 21 1007.0    7/ 8   5/140/ 8
CAPE LOOKOUT NC  1900   78     300/ 11/ 13 1008.9S
BUOY 41002       1753   80 81  270/ 19/ 23 1011.8S  11/ 8
BUOY 41010       1900   81 85  270/  6/ 10 1014.9F   4/10   3/ 20/10
BUOY 41012       NOT AVBL
ST AUGUSTINE FL  1900   78      60/  6/  7 1016.1F
CAPERS NEARSHORE 1800   81     310/  8/ 10   N/A
FRIPP NEARSHORE  NOT AVBL


$$



USA.gov is the U.S. government's official web portal to all federal, state and local government web resources and services.